Terug naar catalogus

STARLINK-33626

ActiefCommunicatieVLEO
NORAD 63369·PAYLOAD·🇺🇸 United States

Gelanceerd Mar 26, 2025 vanaf Vandenberg Space Force Base

Loading…

Volgende Passages (komende 24 uur)

TLE

VersSource: CelesTrak SupGP

Epoch: Sep 14, 2026, 22:53 UTC

1 63369C 25063G   26257.95395833  .00031161  00000+0  92056-3 0  2573
2 63369  53.1575 247.5663 0001262  92.4486  70.7231 15.34377830    14

Volg STARLINK-33626 in realtime met AllMySat

Download on the App Store